This demonstration page uses our WeatherBlox Daily Observations layout. Learn more.

Left ArrowRight Arrow

38.20091, -84.87328

Hourly Observations for April 6, 2020

Temp ( °F °C ) Dew Point ( °F °C ) Humidity (%) Winds ( mph kmh ) Pressure ( in mb ) Visibility ( mi km ) Precip ( " mm )
12:53 am 00:53 Cloudy 56 13.3 49 9.4 77 77 NNE 3 6 30.09 1019 10 16 0.00 0.00
1:53 am 01:53 Cloudy 56 13.3 49 9.4 77 77 NNE 3 6 30.09 1019 10 16 0.00 0.00
2:53 am 02:53 Cloudy 55 12.8 48 8.9 77 77 NNE 3 6 30.09 1019 10 16 0.00 0.00
3:53 am 03:53 Cloudy 54 12.2 48 8.9 80 80 ENE 3 6 30.08 1019 10 16 0.00 0.00
4:53 am 04:53 Mostly Cloudy 53 11.7 48 8.9 83 83 Calm 30.07 1018 10 16 0.00 0.00
5:53 am 05:53 Mostly Cloudy 50 10 47 8.3 89 89 Calm 30.07 1018 7 11 0.00 0.00
6:53 am 06:53 Cloudy 51 10.6 47 8.3 86 86 Calm 30.08 1019 8 13 0.00 0.00
7:53 am 07:53 Cloudy with Haze 53 11.7 48 8.9 83 83 NE 3 6 30.11 1020 6 10 0.00 0.00
8:53 am 08:53 Cloudy with Haze 54 12.2 48 8.9 80 80 NE 5 7 30.12 1020 6 10 0.00 0.00
9:53 am 09:53 Mostly Sunny 57 13.9 49 9.4 74 74 E 3 6 30.13 1020 9 14 0.00 0.00
11:53 am 11:53 Partly Cloudy 64 17.8 51 10.6 63 63 Calm 30.11 1020 10 16 0.00 0.00
12:48 pm 12:48 Mostly Cloudy 66 19 54 12 64 64 W 7 11 30.08 1019 10 16 0.00 0.00
12:53 pm 12:53 Mostly Cloudy 67 19.4 53 11.7 61 61 S 5 7 30.09 1019 10 16 0.00 0.00
1:17 pm 13:17 Mostly Cloudy 67 19.4 53 11.7 61 61 VRB 3 6 30.07 1018 10 16 0.00 0.00
1:27 pm 13:27 Mostly Cloudy 68 20 53 11.7 59 59 Calm 30.07 1018 10 16 0.00 0.00
1:53 pm 13:53 Partly Cloudy 70 21.1 53 11.7 55 55 VRB 7 11 30.07 1018 10 16 0.00 0.00
2:53 pm 14:53 Mostly Cloudy 71 21.7 52 11.1 51 51 WNW 9 15 30.05 1018 10 16 0.00 0.00
3:53 pm 15:53 Cloudy 70 21.1 53 11.7 55 55 VRB 6 9 30.04 1017 10 16 0.00 0.00
4:53 pm 16:53 Cloudy 72 22.2 53 11.7 52 52 VRB 3 6 30.02 1017 10 16 0.00 0.00
5:53 pm 17:53 Mostly Sunny 72 22.2 53 11.7 52 52 SW 3 6 30.00 1016 10 16 0.00 0.00
6:53 pm 18:53 Partly Cloudy 71 21.7 53 11.7 53 53 Calm 30.00 1016 10 16 0.00 0.00
7:53 pm 19:53 Sunny 68 20 53 11.7 59 59 Calm 29.98 1015 10 16 0.00 0.00
8:53 pm 20:53 Clear 63 17.2 53 11.7 70 70 Calm 29.98 1015 10 16 0.00 0.00
9:53 pm 21:53 Clear 58 14.4 52 11.1 81 81 Calm 30.00 1016 10 16 0.00 0.00
10:53 pm 22:53 Clear 57 13.9 51 10.6 81 81 Calm 30.00 1016 10 16 0.00 0.00
11:53 pm 23:53 Mostly Cloudy 56 13.3 51 10.6 84 84 Calm 29.99 1016 10 16 0.00 0.00

Powered by AerisWeather